Track FAST 1 (USA 222) now! 10-day predictions FAST 1 (USA 222) is classified as:
1 37227U 10062F 25165.90243163 .00000854 00000-0 10878-3 0 9991 2 37227 71.9667 236.3924 0012850 85.1574 275.1059 14.84261730311352